Location: Unspecified
(13.1000°N, 0.0000°E)
Time: 16:19:19
(UTC+00:00)

ISS - Visible Passes

Search period start: 21 April 2019 00:00
Search period end: 01 May 2019 00:00
Orbit: 408 x 410 km, 51.6° (Epoch: 22 April)

Date Brightness Start Highest point End Pass type
(mag) Time Alt. Az. Time Alt. Az. Time Alt. Az.
22 Apr -3.5 05:08:32 10° SSW 05:11:48 66° SE 05:15:04 10° NE visible
23 Apr -1.8 04:19:48 19° SSE 04:21:05 24° SE 04:23:50 10° ENE visible
24 Apr -2.6 05:04:34 14° WSW 05:06:42 26° NW 05:09:31 10° N visible
25 Apr -3.4 04:16:23 57° N 04:16:23 57° N 04:19:10 10° NNE visible
26 Apr -0.3 03:28:06 11° NE 03:28:06 11° NE 03:28:14 10° NE visible
27 Apr -1.2 04:12:26 13° NNW 04:12:26 13° NNW 04:13:01 10° N visible
